Weather History for KNYC - May, 2014

Change the Weather History Date:

Monday, May 12, 2014

  Actual Average Record
Temperature  
Mean Temperature 75 °F 61 °F  
Max Temperature 85 °F 70 °F 93 °F (1881)
Min Temperature 64 °F 53 °F 40 °F (1907)
Degree Days  
Heating Degree Days 0 5  
Month to date heating degree days 37 75  
Since 1 July heating degree days 4926 4668  
Cooling Degree Days 10 1  
Month to date cooling degree days 21 12  
Year to date cooling degree days 25 24  
Growing Degree Days 24 (Base 50)    
Moisture  
Dew Point 52 °F    
Average Humidity 48    
Maximum Humidity 58    
Minimum Humidity 37    
Precipitation  
Precipitation 0.00 in 0.13 in 1.84 in (1943)
Month to date precipitation 1.07 1.53  
Year to date precipitation 20.86 17.13  
Snow  
Snow 0.00 in 0.00 in 0.00 in (2002)
Month to date snowfall 0.0 0.0  
Since 1 July snowfall 57.4 25.8  
Snow Depth 0.00 in    
Sea Level Pressure  
Sea Level Pressure 30.07 in    
Wind  
Wind Speed 2 mph (SW)    
Max Wind Speed 10 mph    
Max Gust Speed 18 mph    
Visibility 10 miles    
Events      
T = Trace of Precipitation, MM = Missing Value Source: NWS Daily Summary

Daily Weather History Graph

Daily Weather History Graph

Search for Another Location

Airport or City:

Trip Planner

Search our weather history database for the weather conditions in past years. The results will help you decide how hot, cold, wet, or windy it might be!

Date:

Astronomy

May. 12, 2014 Rise Set
Actual Time 5:41 AM EDT 8:03 PM EDT
Civil Twilight 5:10 AM EDT 8:34 PM EDT
Nautical Twilight 4:32 AM EDT 9:12 PM EDT
Astronomical Twilight 3:50 AM EDT 9:55 PM EDT
Moon 5:57 PM EDT (5/12) 4:20 AM EDT (5/12)
Length of Visible Light 15h 23m
Length of Day
14h 21m
Waxing Gibbous, 95% of the Moon is Illuminated
May 12
Waxing Gibbous
May 14
Full
May 21
Last Quarter
May 28
New
Jun 5
First Quarter

Hourly Weather History & Observations

Time (EDT) Temp. Heat Index Dew Point Humidity Pressure Visibility Wind Dir Wind Speed Gust Speed Precip Events Conditions
12:51 AM 69.1 °F - 45.0 °F 42% 30.08 in 10.0 mi WSW 3.5 mph - N/A   Clear
1:51 AM 69.1 °F - 46.0 °F 44% 30.09 in 10.0 mi WSW 3.5 mph - N/A   Clear
2:51 AM 68.0 °F - 46.0 °F 45% 30.07 in 10.0 mi Variable 4.6 mph - N/A   Clear
3:51 AM 66.9 °F - 46.0 °F 47% 30.09 in 10.0 mi West 4.6 mph - N/A   Clear
4:51 AM 64.9 °F - 46.0 °F 50% 30.09 in 10.0 mi Calm Calm - N/A   Clear
5:51 AM 64.9 °F - 46.0 °F 50% 30.09 in 10.0 mi Calm Calm - N/A   Clear
6:51 AM 66.9 °F - 48.0 °F 51% 30.12 in 10.0 mi Calm Calm - N/A   Clear
7:51 AM 66.9 °F - 48.9 °F 52% 30.12 in 10.0 mi Calm Calm - N/A   Clear
8:51 AM 72.0 °F - 48.9 °F 44% 30.12 in 10.0 mi Calm Calm - N/A   Clear
9:51 AM 73.9 °F - 48.9 °F 41% 30.12 in 10.0 mi Variable 4.6 mph - N/A   Clear
10:51 AM 79.0 °F - 51.1 °F 38% 30.11 in 10.0 mi Calm Calm - N/A   Clear
11:51 AM 81.0 °F 80.4 °F 53.1 °F 38% 30.10 in 10.0 mi Calm Calm - N/A   Clear
12:51 PM 84.0 °F 82.9 °F 55.0 °F 37% 30.08 in 10.0 mi Variable 3.5 mph - N/A   Partly Cloudy
1:51 PM 81.0 °F 80.8 °F 55.9 °F 42% 30.07 in 10.0 mi Variable 6.9 mph - N/A   Partly Cloudy
2:51 PM 82.0 °F 81.7 °F 57.0 °F 42% 30.06 in 10.0 mi North - - N/A   Mostly Cloudy
3:51 PM 79.0 °F - 57.0 °F 47% 30.04 in 10.0 mi South 5.8 mph - N/A   Mostly Cloudy
4:51 PM 79.0 °F - 57.0 °F 47% 30.03 in 10.0 mi Calm Calm - N/A   Overcast
5:51 PM 78.1 °F - 57.0 °F 48% 30.03 in 10.0 mi South 4.6 mph - N/A   Overcast
6:51 PM 78.1 °F - 55.9 °F 46% 30.03 in 10.0 mi Calm Calm - N/A   Overcast
7:51 PM 78.1 °F - 55.9 °F 46% 30.03 in 10.0 mi Calm Calm - N/A   Mostly Cloudy
8:51 PM 75.9 °F - 57.9 °F 54% 30.04 in 10.0 mi Calm Calm - N/A   Overcast
9:51 PM 75.9 °F - 57.0 °F 52% 30.04 in 10.0 mi Calm Calm - N/A   Clear
10:51 PM 75.0 °F - 57.9 °F 55% 30.05 in 10.0 mi West 3.5 mph - N/A   Clear
11:51 PM 75.0 °F - 59.0 °F 57% 30.04 in 10.0 mi Calm Calm - N/A   Clear